owner,sensor,date,latitude,longitude,vertical_datum,direction_of_sea_water_velocity,sea_water_speed,upward_sea_water_velocity,qcFlag 
TABS,ioos:station:wmo:42047:1,2017-07-01T00:00:00Z,27.8966,-93.5973,2.0,136.9944594,19.91004771,-99999.0,'11111222,11111222,99999999' 
TABS,ioos:station:wmo:42047:1,2017-07-01T00:30:00Z,27.8966,-93.5973,2.0,131.9087192,19.01348206,-99999.0,'11111222,11111222,99999999' 
TABS,ioos:station:wmo:42047:1,2017-07-01T01:00:00Z,27.8966,-93.5973,2.0,140.883001,14.48713912,-99999.0,'11111222,11111222,99999999' 
TABS,ioos:station:wmo:42047:1,2017-07-01T01:30:00Z,27.8966,-93.5973,2.0,146.7493346,12.29251805,-99999.0,'11111222,11111222,99999999' 
TABS,ioos:station:wmo:42047:1,2017-07-01T02:00:00Z,27.8966,-93.5973,2.0,146.0897363,10.10948564,-99999.0,'11111222,11111222,99999999' 
TABS,ioos:station:wmo:42047:1,2017-07-01T02:30:00Z,27.8966,-93.5973,2.0,158.3391434,8.31731928,-99999.0,'11133222,11111222,99999999' 
TABS,ioos:station:wmo:42047:1,2017-07-01T03:00:00Z,27.8966,-93.5973,2.0,179.3974042,8.560473118,-99999.0,'11133222,11111222,99999999' 
TABS,ioos:station:wmo:42047:1,2017-07-01T03:30:00Z,27.8966,-93.5973,2.0,218.0777659,5.691265237,-99999.0,'11133222,11111222,99999999' 
TABS,ioos:station:wmo:42047:1,2017-07-01T04:00:00Z,27.8966,-93.5973,2.0,240.4195787,6.036795508,-99999.0,'11133222,11111222,99999999' 
TABS,ioos:station:wmo:42047:1,2017-07-01T04:30:00Z,27.8966,-93.5973,2.0,251.2851846,6.482746332,-99999.0,'11133222,11111222,99999999' 
TABS,ioos:station:wmo:42047:1,2017-07-01T05:00:00Z,27.8966,-93.5973,2.0,289.9479485,5.510607952,-99999.0,'11133222,11111222,99999999' 
TABS,ioos:station:wmo:42047:1,2017-07-01T05:30:00Z,27.8966,-93.5973,2.0,294.0385988,5.376262642,-99999.0,'11133222,11111222,99999999' 
TABS,ioos:station:wmo:42047:1,2017-07-01T06:00:00Z,27.8966,-93.5973,2.0,281.8890512,8.543254649,-99999.0,'11133222,11111222,99999999' 
TABS,ioos:station:wmo:42047:1,2017-07-01T06:30:00Z,27.8966,-93.5973,2.0,292.9819925,9.01556432,-99999.0,'11133222,11111222,99999999' 
TABS,ioos:station:wmo:42047:1,2017-07-01T07:00:00Z,27.8966,-93.5973,2.0,293.846288,8.484250114,-99999.0,'11133222,11111222,99999999' 
TABS,ioos:station:wmo:42047:1,2017-07-01T07:30:00Z,27.8966,-93.5973,2.0,302.9220979,11.99647031,-99999.0,'11111222,11111222,99999999' 
TABS,ioos:station:wmo:42047:1,2017-07-01T08:00:00Z,27.8966,-93.5973,2.0,317.0410213,12.3114662,-99999.0,'11111222,11111222,99999999' 
TABS,ioos:station:wmo:42047:1,2017-07-01T08:30:00Z,27.8966,-93.5973,2.0,328.7673541,15.33214271,-99999.0,'11111222,11111222,99999999' 
TABS,ioos:station:wmo:42047:1,2017-07-01T09:00:00Z,27.8966,-93.5973,2.0,343.3192165,18.0808877,-99999.0,'11111222,11111222,99999999' 
TABS,ioos:station:wmo:42047:1,2017-07-01T09:30:00Z,27.8966,-93.5973,2.0,348.4358264,23.84403489,-99999.0,'11111222,11111222,99999999' 
TABS,ioos:station:wmo:42047:1,2017-07-01T10:00:00Z,27.8966,-93.5973,2.0,352.0555728,22.28387982,-99999.0,'11111222,11111222,99999999' 
TABS,ioos:station:wmo:42047:1,2017-07-01T10:30:00Z,27.8966,-93.5973,2.0,357.65849,26.43207332,-99999.0,'11111222,11111222,99999999' 
TABS,ioos:station:wmo:42047:1,2017-07-01T11:00:00Z,27.8966,-93.5973,2.0,3.255435118,25.71148576,-99999.0,'11111222,11111222,99999999' 
TABS,ioos:station:wmo:42047:1,2017-07-01T11:30:00Z,27.8966,-93.5973,2.0,3.239507149,27.25354472,-99999.0,'11111222,11111222,99999999' 
TABS,ioos:station:wmo:42047:1,2017-07-01T12:00:00Z,27.8966,-93.5973,2.0,3.617069263,28.21620102,-99999.0,'11111222,11111222,99999999' 
TABS,ioos:station:wmo:42047:1,2017-07-01T12:30:00Z,27.8966,-93.5973,2.0,7.475026575,28.44169475,-99999.0,'11111222,11111222,99999999' 
TABS,ioos:station:wmo:42047:1,2017-07-01T13:00:00Z,27.8966,-93.5973,2.0,17.68894168,28.89618141,-99999.0,'11111222,11111222,99999999' 
TABS,ioos:station:wmo:42047:1,2017-07-01T13:30:00Z,27.8966,-93.5973,2.0,20.81912,27.29194203,-99999.0,'11111222,11111222,99999999' 
TABS,ioos:station:wmo:42047:1,2017-07-01T14:00:00Z,27.8966,-93.5973,2.0,23.97975825,23.7936231,-99999.0,'11111222,11111222,99999999' 
TABS,ioos:station:wmo:42047:1,2017-07-01T14:30:00Z,27.8966,-93.5973,2.0,34.37727861,23.36010488,-99999.0,'11111222,11111222,99999999' 
TABS,ioos:station:wmo:42047:1,2017-07-01T15:00:00Z,27.8966,-93.5973,2.0,41.65513928,24.35890186,-99999.0,'11111222,11111222,99999999' 
TABS,ioos:station:wmo:42047:1,2017-07-01T15:30:00Z,27.8966,-93.5973,2.0,41.70290909,23.35904964,-99999.0,'11111222,11111222,99999999' 
TABS,ioos:station:wmo:42047:1,2017-07-01T16:00:00Z,27.8966,-93.5973,2.0,43.43146214,23.50596733,-99999.0,'11111222,11111222,99999999' 
TABS,ioos:station:wmo:42047:1,2017-07-01T16:30:00Z,27.8966,-93.5973,2.0,52.8500165,24.5402934,-99999.0,'11111222,11111222,99999999' 
TABS,ioos:station:wmo:42047:1,2017-07-01T17:00:00Z,27.8966,-93.5973,2.0,63.76646021,22.41919267,-99999.0,'11111222,11111222,99999999' 
TABS,ioos:station:wmo:42047:1,2017-07-01T17:30:00Z,27.8966,-93.5973,2.0,73.07581969,21.71025794,-99999.0,'11111222,11111222,99999999' 
TABS,ioos:station:wmo:42047:1,2017-07-01T18:00:00Z,27.8966,-93.5973,2.0,77.49247237,17.54642129,-99999.0,'11111222,11111222,99999999' 
TABS,ioos:station:wmo:42047:1,2017-07-01T18:30:00Z,27.8966,-93.5973,2.0,83.57760966,17.70108754,-99999.0,'11111222,11111222,99999999' 
TABS,ioos:station:wmo:42047:1,2017-07-01T19:00:00Z,27.8966,-93.5973,2.0,87.00850139,18.39506727,-99999.0,'11111222,11111222,99999999' 
TABS,ioos:station:wmo:42047:1,2017-07-01T19:30:00Z,27.8966,-93.5973,2.0,99.17066088,19.70182986,-99999.0,'11111222,11111222,99999999' 
TABS,ioos:station:wmo:42047:1,2017-07-01T20:00:00Z,27.8966,-93.5973,2.0,101.5656642,20.64927359,-99999.0,'11111222,11111222,99999999' 
TABS,ioos:station:wmo:42047:1,2017-07-01T20:30:00Z,27.8966,-93.5973,2.0,111.0488708,21.63351566,-99999.0,'11111222,11111222,99999999' 
TABS,ioos:station:wmo:42047:1,2017-07-01T21:00:00Z,27.8966,-93.5973,2.0,115.5989237,20.15878221,-99999.0,'11111222,11111222,99999999' 
TABS,ioos:station:wmo:42047:1,2017-07-01T21:30:00Z,27.8966,-93.5973,2.0,115.9089063,17.96574797,-99999.0,'11111222,11111222,99999999' 
TABS,ioos:station:wmo:42047:1,2017-07-01T22:00:00Z,27.8966,-93.5973,2.0,121.1237681,13.5038513,-99999.0,'11111222,11111222,99999999' 
TABS,ioos:station:wmo:42047:1,2017-07-01T22:30:00Z,27.8966,-93.5973,2.0,127.8748951,11.97184196,-99999.0,'11111222,11111222,99999999' 
TABS,ioos:station:wmo:42047:1,2017-07-01T23:00:00Z,27.8966,-93.5973,2.0,126.0414519,11.89724338,-99999.0,'11111222,11111222,99999999' 
TABS,ioos:station:wmo:42047:1,2017-07-01T23:30:00Z,27.8966,-93.5973,2.0,133.9693714,10.61538977,-99999.0,'11111222,11111222,99999999' 
TABS,ioos:station:wmo:42047:1,2017-07-02T00:00:00Z,27.8966,-93.5973,2.0,142.3056372,11.67720857,-99999.0,'11111222,11111222,99999999' 
TABS,ioos:station:wmo:42047:1,2017-07-02T00:30:00Z,27.8966,-93.5973,2.0,156.5925421,9.011620276,-99999.0,'11133222,11111222,99999999' 
TABS,ioos:station:wmo:42047:1,2017-07-02T01:00:00Z,27.8966,-93.5973,2.0,149.6381391,7.834487858,-99999.0,'11133222,11111222,99999999' 
TABS,ioos:station:wmo:42047:1,2017-07-02T01:30:00Z,27.8966,-93.5973,2.0,184.3916171,6.398788948,-99999.0,'11133222,11111222,99999999' 
TABS,ioos:station:wmo:42047:1,2017-07-02T02:00:00Z,27.8966,-93.5973,2.0,206.69609,5.854041339,-99999.0,'11133222,11111222,99999999' 
TABS,ioos:station:wmo:42047:1,2017-07-02T02:30:00Z,27.8966,-93.5973,2.0,227.9971019,5.544231236,-99999.0,'11133222,11111222,99999999' 
TABS,ioos:station:wmo:42047:1,2017-07-02T03:00:00Z,27.8966,-93.5973,2.0,259.1547935,5.314922389,-99999.0,'11133222,11111222,99999999' 
TABS,ioos:station:wmo:42047:1,2017-07-02T03:30:00Z,27.8966,-93.5973,2.0,310.9273148,4.579475953,-99999.0,'11133222,11111222,99999999' 
TABS,ioos:station:wmo:42047:1,2017-07-02T04:00:00Z,27.8966,-93.5973,2.0,296.6884939,4.163568181,-99999.0,'11133222,11111222,99999999' 
TABS,ioos:station:wmo:42047:1,2017-07-02T04:30:00Z,27.8966,-93.5973,2.0,295.7422533,7.782319706,-99999.0,'11133222,11111222,99999999' 
TABS,ioos:station:wmo:42047:1,2017-07-02T05:00:00Z,27.8966,-93.5973,2.0,296.8384068,7.508801502,-99999.0,'11133222,11111222,99999999' 
TABS,ioos:station:wmo:42047:1,2017-07-02T05:30:00Z,27.8966,-93.5973,2.0,305.466006,5.549666657,-99999.0,'11133222,11111222,99999999' 
TABS,ioos:station:wmo:42047:1,2017-07-02T06:00:00Z,27.8966,-93.5973,2.0,315.2276782,3.563846237,-99999.0,'11133222,11111222,99999999' 
TABS,ioos:station:wmo:42047:1,2017-07-02T06:30:00Z,27.8966,-93.5973,2.0,326.9612806,3.173089977,-99999.0,'11133222,11111222,99999999' 
TABS,ioos:station:wmo:42047:1,2017-07-02T07:00:00Z,27.8966,-93.5973,2.0,329.6305221,7.278791108,-99999.0,'11133222,11111222,99999999' 
TABS,ioos:station:wmo:42047:1,2017-07-02T07:30:00Z,27.8966,-93.5973,2.0,337.816249,5.561699381,-99999.0,'11133222,11111222,99999999' 
TABS,ioos:station:wmo:42047:1,2017-07-02T08:00:00Z,27.8966,-93.5973,2.0,7.905365584,7.925313874,-99999.0,'11133222,11111222,99999999' 
TABS,ioos:station:wmo:42047:1,2017-07-02T08:30:00Z,27.8966,-93.5973,2.0,355.9349118,8.040230096,-99999.0,'11133222,11111222,99999999' 
TABS,ioos:station:wmo:42047:1,2017-07-02T09:00:00Z,27.8966,-93.5973,2.0,2.017259704,9.375809298,-99999.0,'11133222,11111222,99999999' 
TABS,ioos:station:wmo:42047:1,2017-07-02T09:30:00Z,27.8966,-93.5973,2.0,7.419958909,10.60883123,-99999.0,'11111222,11111222,99999999' 
TABS,ioos:station:wmo:42047:1,2017-07-02T10:00:00Z,27.8966,-93.5973,2.0,8.503363105,11.29414893,-99999.0,'11111222,11111222,99999999' 
TABS,ioos:station:wmo:42047:1,2017-07-02T10:30:00Z,27.8966,-93.5973,2.0,2.38614891,7.686663776,-99999.0,'11133222,11111222,99999999' 
TABS,ioos:station:wmo:42047:1,2017-07-02T11:00:00Z,27.8966,-93.5973,2.0,7.969802217,10.60240067,-99999.0,'11111222,11111222,99999999' 
TABS,ioos:station:wmo:42047:1,2017-07-02T11:30:00Z,27.8966,-93.5973,2.0,14.0215892,9.369151509,-99999.0,'11133222,11111222,99999999' 
TABS,ioos:station:wmo:42047:1,2017-07-02T12:00:00Z,27.8966,-93.5973,2.0,10.78725449,9.670889308,-99999.0,'11133222,11111222,99999999' 
TABS,ioos:station:wmo:42047:1,2017-07-02T12:30:00Z,27.8966,-93.5973,2.0,23.31866767,11.29237796,-99999.0,'11111222,11111222,99999999' 
TABS,ioos:station:wmo:42047:1,2017-07-02T13:00:00Z,27.8966,-93.5973,2.0,24.56987188,11.68830612,-99999.0,'11111222,11111222,99999999' 
TABS,ioos:station:wmo:42047:1,2017-07-02T13:30:00Z,27.8966,-93.5973,2.0,22.98474021,11.60100427,-99999.0,'11111222,11111222,99999999' 
TABS,ioos:station:wmo:42047:1,2017-07-02T14:00:00Z,27.8966,-93.5973,2.0,28.59157445,9.612158967,-99999.0,'11133222,11111222,99999999' 
TABS,ioos:station:wmo:42047:1,2017-07-02T14:30:00Z,27.8966,-93.5973,2.0,35.00056229,11.15793888,-99999.0,'11111222,11111222,99999999' 
TABS,ioos:station:wmo:42047:1,2017-07-02T15:00:00Z,27.8966,-93.5973,2.0,22.05363457,13.92914211,-99999.0,'11111222,11111222,99999999' 
TABS,ioos:station:wmo:42047:1,2017-07-02T15:30:00Z,27.8966,-93.5973,2.0,18.63217695,14.71100269,-99999.0,'11111222,11111222,99999999' 
TABS,ioos:station:wmo:42047:1,2017-07-02T16:00:00Z,27.8966,-93.5973,2.0,32.99282393,16.17902964,-99999.0,'11111222,11111222,99999999' 
TABS,ioos:station:wmo:42047:1,2017-07-02T16:30:00Z,27.8966,-93.5973,2.0,53.36255666,17.26014195,-99999.0,'11111222,11111222,99999999' 
TABS,ioos:station:wmo:42047:1,2017-07-02T17:00:00Z,27.8966,-93.5973,2.0,64.31992563,17.95329496,-99999.0,'11111222,11111222,99999999' 
TABS,ioos:station:wmo:42047:1,2017-07-02T17:30:00Z,27.8966,-93.5973,2.0,60.81734467,16.94023908,-99999.0,'11111222,11111222,99999999' 
TABS,ioos:station:wmo:42047:1,2017-07-02T18:00:00Z,27.8966,-93.5973,2.0,60.01503585,16.86763172,-99999.0,'11111222,11111222,99999999' 
TABS,ioos:station:wmo:42047:1,2017-07-02T18:30:00Z,27.8966,-93.5973,2.0,72.8061969,11.09587311,-99999.0,'11111222,11111222,99999999' 
TABS,ioos:station:wmo:42047:1,2017-07-02T19:00:00Z,27.8966,-93.5973,2.0,73.00219818,10.84369863,-99999.0,'11111222,11111222,99999999' 
TABS,ioos:station:wmo:42047:1,2017-07-02T19:30:00Z,27.8966,-93.5973,2.0,52.48569531,10.31265242,-99999.0,'11111222,11111222,99999999' 
TABS,ioos:station:wmo:42047:1,2017-07-02T20:00:00Z,27.8966,-93.5973,2.0,63.89028461,7.316645406,-99999.0,'11133222,11111222,99999999' 
TABS,ioos:station:wmo:42047:1,2017-07-02T20:30:00Z,27.8966,-93.5973,2.0,83.17148225,9.58801335,-99999.0,'11133222,11111222,99999999' 
TABS,ioos:station:wmo:42047:1,2017-07-02T21:00:00Z,27.8966,-93.5973,2.0,102.1804809,6.066572344,-99999.0,'11133222,11111222,99999999' 
TABS,ioos:station:wmo:42047:1,2017-07-02T21:30:00Z,27.8966,-93.5973,2.0,136.3107792,6.181731149,-99999.0,'11133222,11111222,99999999' 
TABS,ioos:station:wmo:42047:1,2017-07-02T22:00:00Z,27.8966,-93.5973,2.0,160.4373738,6.749607396,-99999.0,'11133222,11111222,99999999' 
TABS,ioos:station:wmo:42047:1,2017-07-02T22:30:00Z,27.8966,-93.5973,2.0,157.4608527,4.904620271,-99999.0,'11133222,11111222,99999999' 
TABS,ioos:station:wmo:42047:1,2017-07-02T23:00:00Z,27.8966,-93.5973,2.0,168.8569257,1.345362405,-99999.0,'11133222,11111222,99999999' 
TABS,ioos:station:wmo:42047:1,2017-07-02T23:30:00Z,27.8966,-93.5973,2.0,193.516326,1.069626103,-99999.0,'11133222,11111222,99999999' 
TABS,ioos:station:wmo:42047:1,2017-07-03T00:00:00Z,27.8966,-93.5973,2.0,243.1364367,5.156442572,-99999.0,'11133222,11111222,99999999' 
TABS,ioos:station:wmo:42047:1,2017-07-03T00:30:00Z,27.8966,-93.5973,2.0,230.9058116,2.886173938,-99999.0,'11133222,11111222,99999999' 
TABS,ioos:station:wmo:42047:1,2017-07-03T01:00:00Z,27.8966,-93.5973,2.0,260.4550758,3.437586363,-99999.0,'11133222,11111222,99999999' 
TABS,ioos:station:wmo:42047:1,2017-07-03T01:30:00Z,27.8966,-93.5973,2.0,252.2036318,3.402822358,-99999.0,'11133222,11111222,99999999' 
TABS,ioos:station:wmo:42047:1,2017-07-03T02:00:00Z,27.8966,-93.5973,2.0,335.4061561,2.21054292,-99999.0,'11133222,11111222,99999999' 
TABS,ioos:station:wmo:42047:1,2017-07-03T02:30:00Z,27.8966,-93.5973,2.0,313.4736784,6.104498341,-99999.0,'11133222,11111222,99999999' 
TABS,ioos:station:wmo:42047:1,2017-07-03T03:00:00Z,27.8966,-93.5973,2.0,320.9147084,3.36251394,-99999.0,'11133222,11111222,99999999' 
TABS,ioos:station:wmo:42047:1,2017-07-03T03:30:00Z,27.8966,-93.5973,2.0,278.2941389,3.466251578,-99999.0,'11133222,11111222,99999999' 
TABS,ioos:station:wmo:42047:1,2017-07-03T04:00:00Z,27.8966,-93.5973,2.0,12.15512373,3.324530042,-99999.0,'11133222,11111222,99999999' 
TABS,ioos:station:wmo:42047:1,2017-07-03T04:30:00Z,27.8966,-93.5973,2.0,18.48932207,3.342528983,-99999.0,'11133222,11111222,99999999' 
TABS,ioos:station:wmo:42047:1,2017-07-03T05:00:00Z,27.8966,-93.5973,2.0,46.84771117,4.824976684,-99999.0,'11133222,11111222,99999999' 
TABS,ioos:station:wmo:42047:1,2017-07-03T05:30:00Z,27.8966,-93.5973,2.0,19.96263804,7.117654108,-99999.0,'11133222,11111222,99999999' 
TABS,ioos:station:wmo:42047:1,2017-07-03T06:00:00Z,27.8966,-93.5973,2.0,12.86202487,4.85173165,-99999.0,'11133222,11111222,99999999' 
TABS,ioos:station:wmo:42047:1,2017-07-03T06:30:00Z,27.8966,-93.5973,2.0,1.056606186,7.05119848,-99999.0,'11133222,11111222,99999999' 
TABS,ioos:station:wmo:42047:1,2017-07-03T07:00:00Z,27.8966,-93.5973,2.0,4.781869847,7.917556441,-99999.0,'11133222,11111222,99999999' 
TABS,ioos:station:wmo:42047:1,2017-07-03T07:30:00Z,27.8966,-93.5973,2.0,18.51181712,7.086670586,-99999.0,'11133222,11111222,99999999' 
TABS,ioos:station:wmo:42047:1,2017-07-03T08:00:00Z,27.8966,-93.5973,2.0,3.227292841,9.414929633,-99999.0,'11133222,11111222,99999999' 
TABS,ioos:station:wmo:42047:1,2017-07-03T08:30:00Z,27.8966,-93.5973,2.0,359.4506288,8.340383684,-99999.0,'11133222,11144222,99999999' 
TABS,ioos:station:wmo:42047:1,2017-07-03T09:00:00Z,27.8966,-93.5973,2.0,6.650395224,8.980423153,-99999.0,'11133222,11111222,99999999' 
TABS,ioos:station:wmo:42047:1,2017-07-03T09:30:00Z,27.8966,-93.5973,2.0,13.90795575,9.73540446,-99999.0,'11133222,11111222,99999999' 
TABS,ioos:station:wmo:42047:1,2017-07-03T10:00:00Z,27.8966,-93.5973,2.0,30.68009899,12.46467007,-99999.0,'11111222,11111222,99999999' 
TABS,ioos:station:wmo:42047:1,2017-07-03T10:30:00Z,27.8966,-93.5973,2.0,17.26173707,12.1994631,-99999.0,'11111222,11111222,99999999' 
TABS,ioos:station:wmo:42047:1,2017-07-03T11:00:00Z,27.8966,-93.5973,2.0,31.56419095,15.55063021,-99999.0,'11111222,11111222,99999999' 
TABS,ioos:station:wmo:42047:1,2017-07-03T11:30:00Z,27.8966,-93.5973,2.0,40.9227909,17.40351976,-99999.0,'11111222,11111222,99999999' 
TABS,ioos:station:wmo:42047:1,2017-07-03T12:00:00Z,27.8966,-93.5973,2.0,55.96450414,16.09769238,-99999.0,'11111222,11111222,99999999' 
TABS,ioos:station:wmo:42047:1,2017-07-03T12:30:00Z,27.8966,-93.5973,2.0,53.52563342,15.3583658,-99999.0,'11111222,11111222,99999999' 
TABS,ioos:station:wmo:42047:1,2017-07-03T13:00:00Z,27.8966,-93.5973,2.0,60.81926218,14.99280494,-99999.0,'11111222,11111222,99999999' 
TABS,ioos:station:wmo:42047:1,2017-07-03T13:30:00Z,27.8966,-93.5973,2.0,51.80434888,15.0400266,-99999.0,'11111222,11111222,99999999' 
TABS,ioos:station:wmo:42047:1,2017-07-03T14:00:00Z,27.8966,-93.5973,2.0,53.29870469,17.00007353,-99999.0,'11111222,11111222,99999999' 
TABS,ioos:station:wmo:42047:1,2017-07-03T14:30:00Z,27.8966,-93.5973,2.0,68.78249053,15.30766148,-99999.0,'11111222,11111222,99999999' 
TABS,ioos:station:wmo:42047:1,2017-07-03T15:00:00Z,27.8966,-93.5973,2.0,67.53585918,15.57159594,-99999.0,'11111222,11111222,99999999' 
TABS,ioos:station:wmo:42047:1,2017-07-03T15:30:00Z,27.8966,-93.5973,2.0,72.40004858,15.84153086,-99999.0,'11111222,11111222,99999999' 
TABS,ioos:station:wmo:42047:1,2017-07-03T16:00:00Z,27.8966,-93.5973,2.0,86.59356421,17.67122237,-99999.0,'11111222,11111222,99999999' 
TABS,ioos:station:wmo:42047:1,2017-07-03T16:30:00Z,27.8966,-93.5973,2.0,88.40064053,19.34753731,-99999.0,'11111222,11111222,99999999' 
TABS,ioos:station:wmo:42047:1,2017-07-03T17:00:00Z,27.8966,-93.5973,2.0,93.39997488,21.07709895,-99999.0,'11111222,11111222,99999999' 
TABS,ioos:station:wmo:42047:1,2017-07-03T17:30:00Z,27.8966,-93.5973,2.0,96.40366508,25.91166919,-99999.0,'11111222,11111222,99999999' 
TABS,ioos:station:wmo:42047:1,2017-07-03T18:00:00Z,27.8966,-93.5973,2.0,108.4211756,26.39237011,-99999.0,'11111222,11111222,99999999' 
TABS,ioos:station:wmo:42047:1,2017-07-03T18:30:00Z,27.8966,-93.5973,2.0,103.9033414,24.05474797,-99999.0,'11111222,11111222,99999999' 
TABS,ioos:station:wmo:42047:1,2017-07-03T19:00:00Z,27.8966,-93.5973,2.0,114.3964826,26.00173071,-99999.0,'11111222,11111222,99999999' 
TABS,ioos:station:wmo:42047:1,2017-07-03T19:30:00Z,27.8966,-93.5973,2.0,118.8277736,25.0321753,-99999.0,'11111222,11111222,99999999' 
TABS,ioos:station:wmo:42047:1,2017-07-03T20:00:00Z,27.8966,-93.5973,2.0,125.3963765,22.16732956,-99999.0,'11111222,11111222,99999999' 
TABS,ioos:station:wmo:42047:1,2017-07-03T20:30:00Z,27.8966,-93.5973,2.0,129.289315,19.61348516,-99999.0,'11111222,11111222,99999999' 
TABS,ioos:station:wmo:42047:1,2017-07-03T21:00:00Z,27.8966,-93.5973,2.0,136.7391462,20.7348523,-99999.0,'11111222,11111222,99999999' 
TABS,ioos:station:wmo:42047:1,2017-07-03T21:30:00Z,27.8966,-93.5973,2.0,140.6323974,18.5876572,-99999.0,'11111222,11111222,99999999' 
TABS,ioos:station:wmo:42047:1,2017-07-03T22:00:00Z,27.8966,-93.5973,2.0,142.2371475,18.3542284,-99999.0,'11111222,11111222,99999999' 
TABS,ioos:station:wmo:42047:1,2017-07-03T22:30:00Z,27.8966,-93.5973,2.0,154.6990104,17.43215707,-99999.0,'11111222,11111222,99999999' 
TABS,ioos:station:wmo:42047:1,2017-07-03T23:00:00Z,27.8966,-93.5973,2.0,167.4555852,16.11467964,-99999.0,'11111222,11111222,99999999' 
TABS,ioos:station:wmo:42047:1,2017-07-03T23:30:00Z,27.8966,-93.5973,2.0,179.6977063,17.07023726,-99999.0,'11111222,11111222,99999999' 
TABS,ioos:station:wmo:42047:1,2017-07-04T00:00:00Z,27.8966,-93.5973,2.0,188.1352062,15.19289637,-99999.0,'11111222,11111222,99999999' 
TABS,ioos:station:wmo:42047:1,2017-07-04T00:30:00Z,27.8966,-93.5973,2.0,202.1106484,11.34429372,-99999.0,'11111222,11111222,99999999' 
TABS,ioos:station:wmo:42047:1,2017-07-04T01:00:00Z,27.8966,-93.5973,2.0,218.5814613,9.172093545,-99999.0,'11133222,11111222,99999999' 
TABS,ioos:station:wmo:42047:1,2017-07-04T01:30:00Z,27.8966,-93.5973,2.0,232.9876494,10.48203225,-99999.0,'11111222,11111222,99999999' 
TABS,ioos:station:wmo:42047:1,2017-07-04T02:00:00Z,27.8966,-93.5973,2.0,233.2597141,10.58202722,-99999.0,'11111222,11111222,99999999' 
TABS,ioos:station:wmo:42047:1,2017-07-04T02:30:00Z,27.8966,-93.5973,2.0,235.0980066,12.98566132,-99999.0,'11111222,11111222,99999999' 
TABS,ioos:station:wmo:42047:1,2017-07-04T03:00:00Z,27.8966,-93.5973,2.0,257.3745415,11.62098103,-99999.0,'11111222,11111222,99999999' 
TABS,ioos:station:wmo:42047:1,2017-07-04T03:30:00Z,27.8966,-93.5973,2.0,265.8903338,13.81551664,-99999.0,'11111222,11111222,99999999' 
TABS,ioos:station:wmo:42047:1,2017-07-04T04:00:00Z,27.8966,-93.5973,2.0,282.238518,10.04834812,-99999.0,'11111222,11111222,99999999' 
TABS,ioos:station:wmo:42047:1,2017-07-04T04:30:00Z,27.8966,-93.5973,2.0,308.635086,10.71508283,-99999.0,'11111222,11111222,99999999' 
TABS,ioos:station:wmo:42047:1,2017-07-04T05:00:00Z,27.8966,-93.5973,2.0,311.5960079,11.31245773,-99999.0,'11111222,11111222,99999999' 
TABS,ioos:station:wmo:42047:1,2017-07-04T05:30:00Z,27.8966,-93.5973,2.0,317.8643962,12.02876968,-99999.0,'11111222,11111222,99999999' 
TABS,ioos:station:wmo:42047:1,2017-07-04T06:00:00Z,27.8966,-93.5973,2.0,321.3836499,10.36681726,-99999.0,'11111222,11111222,99999999' 
TABS,ioos:station:wmo:42047:1,2017-07-04T06:30:00Z,27.8966,-93.5973,2.0,335.0256341,9.829069132,-99999.0,'11133222,11111222,99999999' 
TABS,ioos:station:wmo:42047:1,2017-07-04T07:00:00Z,27.8966,-93.5973,2.0,351.7018585,9.630835893,-99999.0,'11133222,11111222,99999999' 
TABS,ioos:station:wmo:42047:1,2017-07-04T07:30:00Z,27.8966,-93.5973,2.0,350.0156742,9.920246973,-99999.0,'11133222,11111222,99999999' 
TABS,ioos:station:wmo:42047:1,2017-07-04T08:00:00Z,27.8966,-93.5973,2.0,9.48055073,10.44262419,-99999.0,'11111222,11111222,99999999' 
TABS,ioos:station:wmo:42047:1,2017-07-04T08:30:00Z,27.8966,-93.5973,2.0,8.636652897,10.72157171,-99999.0,'11111222,11111222,99999999' 
TABS,ioos:station:wmo:42047:1,2017-07-04T09:00:00Z,27.8966,-93.5973,2.0,14.06376333,10.1646692,-99999.0,'11111222,11111222,99999999' 
TABS,ioos:station:wmo:42047:1,2017-07-04T09:30:00Z,27.8966,-93.5973,2.0,31.36380401,12.77695582,-99999.0,'11111222,11111222,99999999' 
TABS,ioos:station:wmo:42047:1,2017-07-04T10:00:00Z,27.8966,-93.5973,2.0,28.53528033,12.74865091,-99999.0,'11111222,11111222,99999999' 
TABS,ioos:station:wmo:42047:1,2017-07-04T10:30:00Z,27.8966,-93.5973,2.0,34.66927288,16.71833126,-99999.0,'11111222,11111222,99999999' 
TABS,ioos:station:wmo:42047:1,2017-07-04T11:00:00Z,27.8966,-93.5973,2.0,42.37326007,16.66280289,-99999.0,'11111222,11111222,99999999' 
TABS,ioos:station:wmo:42047:1,2017-07-04T11:30:00Z,27.8966,-93.5973,2.0,57.4089348,16.48594856,-99999.0,'11111222,11111222,99999999' 
TABS,ioos:station:wmo:42047:1,2017-07-04T12:00:00Z,27.8966,-93.5973,2.0,46.699774,19.07198993,-99999.0,'11111222,11111222,99999999' 
TABS,ioos:station:wmo:42047:1,2017-07-04T12:30:00Z,27.8966,-93.5973,2.0,60.72214276,22.67678328,-99999.0,'11111222,11111222,99999999' 
TABS,ioos:station:wmo:42047:1,2017-07-04T13:00:00Z,27.8966,-93.5973,2.0,67.85881366,26.612467,-99999.0,'11111222,11111222,99999999' 
TABS,ioos:station:wmo:42047:1,2017-07-04T13:30:00Z,27.8966,-93.5973,2.0,72.26315651,28.0325097,-99999.0,'11111222,11111222,99999999' 
TABS,ioos:station:wmo:42047:1,2017-07-04T14:00:00Z,27.8966,-93.5973,2.0,75.1650425,30.62067276,-99999.0,'11111222,11111222,99999999' 
TABS,ioos:station:wmo:42047:1,2017-07-04T14:30:00Z,27.8966,-93.5973,2.0,75.88508659,30.01623727,-99999.0,'11111222,11111222,99999999' 
TABS,ioos:station:wmo:42047:1,2017-07-04T15:00:00Z,27.8966,-93.5973,2.0,87.9941345,29.99838162,-99999.0,'11111222,11111222,99999999' 
TABS,ioos:station:wmo:42047:1,2017-07-04T15:30:00Z,27.8966,-93.5973,2.0,90.57778296,30.74156307,-99999.0,'11111222,11111222,99999999' 
TABS,ioos:station:wmo:42047:1,2017-07-04T16:00:00Z,27.8966,-93.5973,2.0,98.06285375,25.31019755,-99999.0,'11111222,11111222,99999999' 